Regional Weather Roundup
Issued by NWS Cleveland, OH

Home | Current Version | Previous Version | Graphics & Text | Print | Product List | Glossary On
Versions: 1 2 3 4 5 6 7 8 9 10 11 12 13 14 15 16 17 18 19 20 21 22 23 24 25 26 27 28 29 30 31 32 33 34 35 36 37 38 39 40 41 42 43 44 45 46 47 48 49 50
000
ASUS41 KCLE 272210
RWRCLE
OHIO REGIONAL WEATHER ROUNDUP
NATIONAL WEATHER SERVICE CLEVELAND, OH
500 PM EST FRI FEB 27 2015

NOTE: "FAIR" INDICATES FEW OR NO CLOUDS BELOW 12,000 FEET WITH NO
SIGNIFICANT WEATHER AND/OR OBSTRUCTIONS TO VISIBILITY.

OHZ001>008-015>018-024>027-034-035-043-044-272300-
   NORTHWEST OHIO

CITY           SKY/WX    TMP DP  RH WIND       PRES   REMARKS
DEFIANCE       SUNNY     18  -2  41 SW6       30.60R WCI  10
FINDLAY        SUNNY     14   0  53 W8        30.59R WCI   3
TOLEDO EXPRESS SUNNY     14  -1  51 W10       30.59S WCI   1
TOLEDO EXEC    SUNNY     14  -1  51 SW9       30.60S WCI   2
LIMA           SUNNY     16  -3  43 NW7       30.57S WCI   6
$$

OHZ009>014-019>023-028>033-038-089-272300-
   NORTHEAST OHIO

CITY           SKY/WX    TMP DP  RH WIND       PRES   REMARKS
CLE-HOPKINS    PTSUNNY   14  -1  51 SW8       30.61R WCI   3
CLE-LAKEFRONT  MOSUNNY   14   3  61 W8        30.60R WCI   3
CUY CO. ARPT   MOSUNNY   16   3  57 NW12      30.58R WCI   3
LORAIN-ELYRIA  SUNNY     12  -1  56 SW7       30.59R WCI   1
ASHTABULA      SUNNY     12  -5  46 W9        30.57R WCI   0
AKRON-CANTON   MOSUNNY   14  -4  44 SW13      30.55R WCI   0
WOOSTER        SUNNY     12  -1  56 NW7       30.56R WCI   1
MANSFIELD      SUNNY     13  -1  54 NW7       30.54S WCI   3
YOUNGSTOWN     PTSUNNY   13  -2  51 NW9       30.53R WCI   1
$$

OHZ042-051>053-060>062-070>072-077>081-272300-
  SOUTHWEST OHIO

CITY           SKY/WX    TMP DP  RH WIND       PRES   REMARKS
CINC-COVINGTON MOSUNNY   22   1  40 CALM      30.57S
CINC-LUNKEN    SUNNY     21   1  41 N5        30.62S WCI  15
HAMILTON       SUNNY     21   1  41 N8        30.61F WCI  11
DAYTON         PTSUNNY   20   3  48 NE7       30.58S WCI  11
WRIGHT-PAT AFB PTSUNNY   17  -1  44 N6        30.59R WCI   9
DAYTON GENERAL MOSUNNY   18   0  45 NW6       30.58R WCI  10
WILMINGTON     PTSUNNY   15  -1  49 E6        30.57R WCI   6
$$

OHZ036-037-039>041-045>050-054>059-063>069-073>076-082>088-272300-
  CENTRAL AND SOUTHEAST OHIO

CITY           SKY/WX    TMP DP  RH WIND       PRES   REMARKS
COLUMBUS       PTSUNNY   17   0  47 NW8       30.59R WCI   7
OSU AIRPORT    MOSUNNY   17  -2  43 VRB6      30.58S WCI   9
BOLTON FIELD   SUNNY     16   0  48 W8        30.59S WCI   5
RICKENBACK AFB SUNNY     17  -1  44 W12       30.60R WCI   5
NEWARK         PTSUNNY   16   2  54 NW5       30.58R WCI   9
MARION         SUNNY     15  -2  46 NW3       30.58S
LANCASTER      PTSUNNY   18   1  47 W9        30.59R WCI   7
ZANESVILLE     CLOUDY    16   0  49 NW8       30.57S WCI   5
NEW PHILLY     SUNNY     18  -2  41 W6        30.58S WCI  10
$$


USA.gov is the U.S. government's official web portal to all federal, state and local government web resources and services.